Waarnemingen

Advertentie
Mijn weer
Feldberg/Mecklenburg, Duitsland (10282): temperatuur & dauwpunt: 15.10.2018 16:00:00 - 21.10.2018 16:00:00 (CEST)Feldberg/Mecklenburg, Duitsland (10282): temperatuur 5cm & temperatuur -5cm: 15.10.2018 16:00:00 - 21.10.2018 16:00:00 (CEST)Feldberg/Mecklenburg, Duitsland (10282): temperatuur -20cm & temperatuur -100cm: 15.10.2018 16:00:00 - 21.10.2018 16:00:00 (CEST)Feldberg/Mecklenburg, Duitsland (10282): windsnelheid & windstoten: 15.10.2018 16:00:00 - 21.10.2018 16:00:00 (CEST)Feldberg/Mecklenburg, Duitsland (10282): windrichting: 15.10.2018 16:00:00 - 21.10.2018 16:00:00 (CEST)Feldberg/Mecklenburg, Duitsland (10282): luchtdruk: 15.10.2018 16:00:00 - 21.10.2018 16:00:00 (CEST)Feldberg/Mecklenburg, Duitsland (10282): zicht: 15.10.2018 16:00:00 - 21.10.2018 16:00:00 (CEST)Feldberg/Mecklenburg, Duitsland (10282): Zonneschijnduur: 15.10.2018 16:00:00 - 21.10.2018 16:00:00 (CEST)Feldberg/Mecklenburg, Duitsland (10282): neerslag: 15.10.2018 16:00:00 - 21.10.2018 16:00:00 (CEST)
Datum & Tijd tt [°C] td [°C] tt 5cm [°C] tt -5cm [°C] tt -20cm [°C] tt -100cm [°C] ff [km/u] ff [kn] fx [km/u] fx [kn] dd ppp [hPa] vv [km] sd [min] rr [mm]
21.10.2018 16:00:00 14,1 5,8 16,0 15,2 11,1 13,7 15 8 24 13 ZZW 1027,4 33 60 0,0
21.10.2018 15:00:00 14,5 6,1 17,2 15,0 10,6 13,7 14 8 22 12 ZW 1027,7 47 54 0,0
21.10.2018 14:00:00 13,0 6,5 14,4 14,6 9,9 13,7 14 8 23 12 WZW 1028,3 48 42 0,0
21.10.2018 13:00:00 12,7 6,9 16,3 13,4 9,3 13,7 14 7 22 12 ZW 1028,8 34 60 0,0
21.10.2018 12:00:00 11,8 7,2 15,0 11,3 8,8 13,7 16 9 20 11 ZW 1029,2 39 60 0,0
21.10.2018 11:00:00 10,1 7,9 11,7 8,8 8,5 13,7 6 3 9 5 Z 1029,3 24 54 0,0
21.10.2018 10:00:00 7,1 6,9 7,8 6,9 8,5 13,7 1 1 3 2 WZW 1029,4 0,8 36 0,0
21.10.2018 09:00:00 5,0 5,0 5,3 5,5 8,6 13,7 0 0 4 2 N 1029,1 0,1 0 0,0
21.10.2018 08:00:00 3,7 3,7 1,9 4,6 8,8 13,8 2 1 7 4 W 1028,9 0,1 0 0,0
21.10.2018 07:00:00 2,9 2,9 -0,6 4,7 9,0 13,8 5 3 7 4 W 1028,8 0,3 0 0,0
21.10.2018 06:00:00 3,4 3,1 1,1 5,0 9,2 13,8 4 2 9 5 WNW 1028,6 0,2 0 0,0
21.10.2018 05:00:00 4,0 4,0 -0,2 5,3 9,5 13,8 6 3 8 4 W 1028,7 0,8 0 0,0
21.10.2018 04:00:00 3,2 3,0 -0,3 5,7 9,7 13,8 5 3 7 4 NW 1028,4 4,4 0 0,0
21.10.2018 03:00:00 2,2 1,7 -0,5 6,3 10,0 13,8 2 1 10 6 NNW 1028,7 2,6 0 0,0
21.10.2018 02:00:00 7,0 6,0 4,3 6,8 10,2 13,8 8 5 12 6 NW 1028,4 17 0 0,0
21.10.2018 01:00:00 6,7 5,2 4,2 7,2 10,4 13,8 9 5 13 7 NW 1028,2 18 0 0,0
21.10.2018 00:00:00 6,0 4,3 3,4 7,9 10,6 13,8 7 4 10 5 WNW 1028,1 22 0 0,0
20.10.2018 23:00:00 7,4 4,9 6,5 8,3 10,7 13,9 6 4 9 5 W 1028,2 31 0 0,0
20.10.2018 22:00:00 7,2 4,6 5,6 8,5 10,9 13,9 4 2 11 6 WNW 1028,3 33 0 0,0
20.10.2018 21:00:00 6,5 3,9 5,3 9,0 11,1 13,9 9 5 12 7 WZW 1027,7 34 0 0,0
20.10.2018 20:00:00 7,8 4,5 6,6 9,7 11,2 13,9 9 5 13 7 WZW 1027,6 37 0 0,0
20.10.2018 19:00:00 7,9 4,5 6,4 10,4 11,2 13,9 6 3 12 7 WZW 1027,7 41 0 0,0
20.10.2018 18:00:00 9,4 4,8 9,1 11,1 11,2 13,9 9 5 22 12 WZW 1027,9 44 0 0,0
20.10.2018 17:00:00 9,9 4,6 10,0 11,6 11,0 13,9 18 10 27 15 W 1027,9 42 0 0,0
20.10.2018 16:00:00 10,3 4,1 11,0 11,9 10,8 14,0 20 11 27 14 W 1027,8 51 0 0,0
20.10.2018 15:00:00 10,3 3,6 11,1 11,5 10,6 14,0 17 9 29 16 W 1028,1 45 0 0,0
20.10.2018 14:00:00 10,2 2,9 10,7 11,5 10,4 14,0 20 11 29 16 W 1028,3 50 0 0,0
20.10.2018 13:00:00 10,3 2,6 11,1 11,8 10,0 14,0 19 10 29 16 W 1028,1 62 12 0,0
20.10.2018 12:00:00 10,5 2,9 11,3 11,0 9,7 14,0 18 10 29 16 W 1028,4 53 20 0,0
20.10.2018 11:00:00 10,6 2,3 12,2 9,7 9,5 14,0 15 8 23 12 W 1028,1 52 55 0,0
20.10.2018 10:00:00 7,8 3,4 8,8 8,0 9,4 14,0 12 6 17 9 W 1027,9 45 60 0,0
20.10.2018 09:00:00 5,6 3,6 5,7 6,9 9,4 14,0 11 6 16 8 W 1027,7 30 8 0,0
20.10.2018 08:00:00 6,0 3,4 5,6 6,8 9,5 14,0 10 5 16 8 W 1027,1 41 0 0,0
20.10.2018 07:00:00 4,7 3,2 3,8 6,6 9,6 14,1 3 2 10 5 W 1026,8 36 0 0,0
20.10.2018 06:00:00 5,5 2,2 3,5 7,0 9,6 14,1 7 4 12 6 WNW 1027,1 50 0 0,0
20.10.2018 05:00:00 6,7 3,8 5,8 7,2 9,7 14,1 3 2 11 6 W 1026,6 46 0 0,0
20.10.2018 04:00:00 7,1 4,3 6,1 6,9 9,8 14,1 6 3 10 5 NW 1026,6 41 0 0,0
20.10.2018 03:00:00 6,3 4,5 5,3 6,4 10,0 14,1 7 4 14 7 NW 1026,3 29 0 0,0
20.10.2018 02:00:00 3,8 3,5 1,8 5,9 10,2 14,1 6 4 9 5 NW 1026,5 16 0 0,0
20.10.2018 01:00:00 4,1 3,0 0,1 6,6 10,5 14,1 8 4 10 5 NNW 1026,2 18 0 0,0
20.10.2018 00:00:00 5,6 3,7 3,2 6,9 10,7 14,1 7 4 11 6 NW 1026,2 23 0 0,0
19.10.2018 23:00:00 6,2 3,6 3,5 7,3 11,0 14,1 8 4 13 7 NNW 1026,3 25 0 0,0
19.10.2018 22:00:00 6,5 4,0 3,0 7,4 11,4 14,2 8 5 11 6 NW 1026,3 32 0 0,0
19.10.2018 21:00:00 3,2 2,0 -0,3 8,1 11,7 14,2 5 3 7 4 WNW 1026,3 31 0 0,0
19.10.2018 20:00:00 3,5 2,1 0,0 9,1 12,0 14,2 4 2 8 4 WNW 1026,0 26 0 0,0
19.10.2018 19:00:00 5,1 2,8 1,1 10,4 12,2 14,2 5 3 7 4 WNW 1025,6 40 0 0,0
19.10.2018 18:00:00 9,5 3,7 7,0 12,0 12,1 14,2 5 3 13 7 WNW 1024,9 51 36 0,0
19.10.2018 17:00:00 11,4 4,1 11,7 13,4 11,9 14,2 8 5 20 11 NNW 1024,6 41 60 0,0
19.10.2018 16:00:00 11,8 4,5 15,7 13,6 11,6 14,2 12 7 18 10 N 1025,1 44 40 0,0
19.10.2018 15:00:00 11,5 4,7 12,7 13,6 11,2 14,2 10 5 18 10 NW 1025,4 40 22 0,0
19.10.2018 14:00:00 11,8 4,9 15,1 13,3 10,8 14,3 8 4 16 9 NNW 1025,7 42 25 0,0
19.10.2018 13:00:00 11,3 6,0 16,5 12,1 10,4 14,3 8 4 17 9 N 1025,9 33 14 0,0
19.10.2018 12:00:00 10,0 6,6 12,6 11,4 10,1 14,3 11 6 19 10 NNW 1026,0 30 50 0,0
19.10.2018 11:00:00 8,7 6,2 10,5 9,4 9,9 14,3 11 6 16 9 NW 1026,1 24 60 0,0
19.10.2018 10:00:00 6,2 5,4 6,9 7,7 10,0 14,3 8 4 15 8 NW 1026,0 19 60 0,0
19.10.2018 09:00:00 4,5 4,3 4,8 6,3 10,2 14,3 9 5 15 8 NW 1025,6 1,0 19 0,0
19.10.2018 08:00:00 3,7 3,5 2,7 6,1 10,4 14,3 9 5 13 7 NW 1025,2 0,8 0 0,0
19.10.2018 07:00:00 4,0 3,8 2,7 6,5 10,6 14,3 9 5 14 8 NW 1025,0 2,1 0 0,0
19.10.2018 06:00:00 4,7 4,4 3,5 6,7 10,9 14,3 11 6 15 8 NW 1024,7 13 0 0,0
19.10.2018 05:00:00 4,5 4,2 0,7 7,1 11,2 14,3 5 3 11 6 NNW 1024,8 9 0 0,0
19.10.2018 04:00:00 5,2 4,8 2,7 7,7 11,4 14,3 6 3 11 6 NW 1024,6 20 0 0,0
19.10.2018 03:00:00 5,7 5,0 4,2 8,3 11,7 14,3 7 4 17 9 NW 1024,8 21 0 0,0
19.10.2018 02:00:00 6,9 5,8 5,7 8,8 11,9 14,3 11 6 19 10 NNW 1024,8 34 0 0,0
19.10.2018 01:00:00 7,1 5,6 5,5 9,1 12,2 14,3 11 6 15 8 NNW 1024,7 42 0 0,0
19.10.2018 00:00:00 7,8 6,3 6,0 9,7 12,4 14,4 9 5 15 8 NNW 1024,7 34 0 0,0
18.10.2018 23:00:00 8,3 6,7 6,5 10,3 12,6 14,4 9 5 13 7 N 1024,5 33 0 0,0
18.10.2018 22:00:00 9,6 7,2 7,6 11,0 12,7 14,4 9 5 19 10 NNW 1024,1 35 0 0,0
18.10.2018 21:00:00 10,7 7,7 9,6 11,9 12,7 14,4 13 7 24 13 N 1023,6 40 0 0,0
18.10.2018 20:00:00 11,8 9,1 11,5 12,3 12,8 14,4 15 8 27 15 NNW 1023,1 28 0 0,0
18.10.2018 19:00:00 11,9 10,4 11,7 12,5 12,7 14,4 13 7 24 13 N 1022,3 13 0 0,0
18.10.2018 18:00:00 12,3 11,0 12,1 12,7 12,7 14,4 14 8 22 12 NNW 1021,9 9 0 0,0
18.10.2018 17:00:00 12,3 11,2 12,1 12,9 12,6 14,4 14 8 35 19 N 1021,5 7 0 0,0
18.10.2018 16:00:00 13,0 12,5 13,1 13,2 12,4 14,4 15 8 24 13 N 1021,3 3,2 0 0,0
18.10.2018 15:00:00 13,2 12,5 13,5 13,3 12,2 14,4 13 7 27 14 NNW 1020,9 3,2 0 0,0
18.10.2018 14:00:00 13,0 12,1 14,2 13,0 11,9 14,4 10 5 18 10 NW 1020,8 3,3 0 0,0
18.10.2018 13:00:00 12,3 11,8 13,9 12,4 11,6 14,4 10 5 20 11 NW 1020,8 2,6 0 0,0
18.10.2018 12:00:00 11,5 11,3 12,4 11,8 11,4 14,4 14 8 25 14 NNW 1020,9 0,8 0 0,0
18.10.2018 11:00:00 10,1 9,9 11,4 10,8 11,3 14,4 15 8 29 15 NNW 1020,8 1,2 3 0,0
18.10.2018 10:00:00 10,1 8,2 10,9 9,6 11,3 14,4 13 7 21 12 NW 1020,4 4,2 43 0,0
18.10.2018 09:00:00 10,0 8,3 9,1 8,3 11,5 14,4 4 2 14 7 ZZW 1020,0 4,6 34 0,0
18.10.2018 08:00:00 5,8 5,4 3,1 7,9 11,7 14,4 3 2 5 3 W 1020,0 1,6 0 0,0
18.10.2018 07:00:00 5,7 5,2 2,8 8,2 11,9 14,4 5 3 7 4 WNW 1019,6 1,6 0 0,0
18.10.2018 06:00:00 5,9 5,3 2,7 8,6 12,2 14,4 3 2 6 4 WNW 1019,5 1,8 0 0,0
18.10.2018 05:00:00 6,4 5,8 3,2 8,9 12,4 14,4 2 1 3 2 WNW 1019,6 2,2 0 0,0
18.10.2018 04:00:00 6,7 5,7 4,2 9,2 12,7 14,4 2 1 4 2 WNW 1019,7 3,1 0 0,0
18.10.2018 03:00:00 7,1 5,8 4,8 9,6 13,0 14,4 2 1 6 3 WNW 1019,9 4,0 0 0,0
18.10.2018 02:00:00 7,2 6,0 4,3 10,0 13,3 14,4 4 2 5 3 WNW 1020,0 4,7 0 0,0
18.10.2018 01:00:00 6,9 5,5 4,2 10,4 13,6 14,4 0 0 3 2 N 1020,2 5 0 0,0
18.10.2018 00:00:00 7,6 6,0 4,7 10,9 13,9 14,4 1 1 4 2 N 1020,0 9 0 0,0
17.10.2018 23:00:00 8,1 6,3 5,0 11,5 14,2 14,4 2 1 5 3 NNW 1020,1 11 0 0,0
17.10.2018 22:00:00 9,3 6,9 5,8 12,2 14,6 14,5 2 1 4 2 NNO 1020,3 11 0 0,0
17.10.2018 21:00:00 9,3 6,7 6,2 13,0 14,9 14,5 3 2 4 2 NNO 1020,0 14 0 0,0
17.10.2018 20:00:00 10,2 6,9 6,7 14,0 15,1 14,5 3 2 4 2 N 1019,6 15 0 0,0
17.10.2018 19:00:00 12,0 7,1 8,3 15,4 15,3 14,5 2 1 7 4 NNO 1019,5 17 0 0,0
17.10.2018 18:00:00 16,5 8,2 14,1 17,1 15,2 14,5 5 3 8 5 OZO 1018,9 22 26 0,0
17.10.2018 17:00:00 19,3 8,0 18,9 18,7 14,8 14,5 7 4 12 7 OZO 1018,6 22 60 0,0
17.10.2018 16:00:00 20,0 8,0 21,7 19,4 14,3 14,5 8 5 15 8 O 1018,5 25 60 0,0
17.10.2018 15:00:00 20,0 7,7 22,6 19,5 13,6 14,5 12 6 16 9 O 1018,7 20 60 0,0
17.10.2018 14:00:00 20,1 7,2 22,5 18,7 12,9 14,5 9 5 14 8 ZO 1018,8 21 60 0,0
17.10.2018 13:00:00 19,1 8,2 22,2 17,2 12,3 14,5 6 4 10 6 OZO 1019,2 19 60 0,0
17.10.2018 12:00:00 17,4 7,9 20,4 15,0 11,8 14,5 5 3 13 7 OZO 1019,7 19 60 0,0
17.10.2018 11:00:00 16,0 7,3 17,9 12,5 11,5 14,5 4 2 7 4 ZZO 1019,8 20 60 0,0
17.10.2018 10:00:00 12,8 7,7 13,2 10,2 11,5 14,5 3 2 5 3 OZO 1020,1 16 60 0,0
17.10.2018 09:00:00 8,9 7,0 8,6 8,5 11,7 14,5 0 0 6 3 N 1020,0 7 39 0,0
17.10.2018 08:00:00 5,6 4,9 3,7 8,2 11,9 14,5 2 1 4 2 N 1020,1 5 0 0,0
17.10.2018 07:00:00 6,5 6,0 2,9 8,5 12,1 14,5 4 2 8 4 ZO 1019,6 2,4 0 0,0
17.10.2018 06:00:00 6,5 5,7 3,4 8,9 12,4 14,5 1 1 4 2 OZO 1019,6 8 0 0,0
17.10.2018 05:00:00 6,6 5,9 4,3 9,1 12,6 14,5 4 2 5 3 NW 1019,4 7 0 0,0
17.10.2018 04:00:00 5,8 4,9 3,7 9,4 12,9 14,5 2 1 4 2 N 1019,5 6 0 0,0
17.10.2018 03:00:00 6,8 6,0 4,6 9,8 13,2 14,5 2 1 4 2 NNW 1019,7 9 0 0,0
17.10.2018 02:00:00 6,8 5,6 4,1 10,3 13,5 14,5 3 2 4 2 WNW 1019,7 10 0 0,0
17.10.2018 01:00:00 7,7 6,1 4,9 10,8 13,8 14,5 2 1 3 2 ZO 1019,7 13 0 0,0
17.10.2018 00:00:00 8,5 6,3 5,3 11,3 14,1 14,5 0 0 4 2 N 1019,8 17 0 0,0
16.10.2018 23:00:00 9,1 6,8 5,7 11,9 14,5 14,5 4 2 6 3 NW 1019,9 16 0 0,0
16.10.2018 22:00:00 8,9 6,2 6,1 12,6 14,8 14,5 0 0 4 2 N 1020,0 14 0 0,0
16.10.2018 21:00:00 10,4 7,0 7,0 13,4 15,1 14,5 2 1 4 2 WNW 1019,9 18 0 0,0
16.10.2018 20:00:00 11,2 6,9 7,7 14,5 15,4 14,6 0 0 4 2 N 1019,8 20 0 0,0
16.10.2018 19:00:00 13,0 7,1 9,2 15,8 15,5 14,6 2 1 6 3 OZO 1019,3 21 0 0,0
16.10.2018 18:00:00 17,2 7,1 13,2 17,5 15,4 14,6 3 1 6 3 OZO 1018,6 26 3 0,0
16.10.2018 17:00:00 21,2 7,5 20,1 19,2 15,0 14,6 3 2 12 6 ZZW 1018,1 28 60 0,0
16.10.2018 16:00:00 21,6 6,6 23,1 20,0 14,4 14,6 5 3 12 7 Z 1018,0 29 60 0,0
16.10.2018 15:00:00 21,7 6,1 24,1 19,8 13,7 14,6 6 4 16 9 ZW 1018,0 28 60 0,0
16.10.2018 14:00:00 21,4 6,1 23,6 18,9 12,9 14,6 6 4 13 7 Z 1018,2 29 60 0,0
16.10.2018 13:00:00 19,6 6,4 22,4 17,2 12,3 14,6 5 3 10 6 ZO 1018,3 26 60 0,0
16.10.2018 12:00:00 17,7 6,9 20,6 14,9 11,8 14,6 6 3 13 7 ZO 1018,4 24 60 0,0
16.10.2018 11:00:00 15,4 6,2 17,6 12,4 11,5 14,6 6 3 10 5 ZO 1018,5 25 60 0,0
16.10.2018 10:00:00 12,4 6,0 12,8 10,1 11,5 14,6 4 2 6 3 Z 1018,5 20 60 0,0
16.10.2018 09:00:00 8,8 5,9 8,8 8,4 11,7 14,6 4 2 6 3 OZO 1018,6 16 37 0,0
16.10.2018 08:00:00 5,8 4,2 2,9 8,0 11,9 14,6 4 2 7 4 ZO 1018,4 14 0 0,0
16.10.2018 07:00:00 5,7 3,7 2,7 8,3 12,1 14,6 3 2 4 2 W 1017,9 15 0 0,0
16.10.2018 06:00:00 6,2 3,7 2,7 8,6 12,4 14,6 1 1 4 2 W 1017,9 17 0 0,0
16.10.2018 05:00:00 6,8 3,7 3,6 9,0 12,6 14,6 2 1 4 2 ONO 1017,3 19 0 0,0
16.10.2018 04:00:00 6,9 3,7 3,8 9,3 12,9 14,6 2 1 4 2 Z 1017,4 18 0 0,0
16.10.2018 03:00:00 8,4 4,3 4,9 9,7 13,2 14,6 4 2 9 5 NW 1017,4 22 0 0,0
16.10.2018 02:00:00 9,6 4,4 4,9 10,1 13,5 14,6 2 1 5 3 NW 1017,1 23 0 0,0
16.10.2018 01:00:00 9,5 4,5 4,8 10,6 13,8 14,6 3 1 9 5 ZZW 1016,8 21 0 0,0
16.10.2018 00:00:00 12,0 4,7 8,3 11,0 14,1 14,6 8 4 10 5 Z 1016,9 23 0 0,0
15.10.2018 23:00:00 10,2 5,2 5,6 11,5 14,4 14,6 4 2 6 3 W 1017,0 22 0 0,0
15.10.2018 22:00:00 9,2 5,1 5,5 12,2 14,7 14,6 3 1 7 4 W 1017,0 22 0 0,0
15.10.2018 21:00:00 10,6 5,8 7,2 13,0 15,0 14,6 4 2 7 4 ZZO 1017,0 23 0 0,0
15.10.2018 20:00:00 12,6 5,9 8,4 14,1 15,3 14,6 4 2 9 5 ZO 1016,8 27 0 0,0
15.10.2018 19:00:00 15,4 6,1 10,3 15,4 15,3 14,6 6 3 13 7 Z 1016,3 31 0 0,0
15.10.2018 18:00:00 18,6 6,8 17,2 16,6 15,3 14,6 8 5 17 9 ZZO 1015,7 31 21 0,0
15.10.2018 17:00:00 19,6 6,8 19,3 17,5 15,1 14,6 12 6 20 11 ZZO 1015,2 33 57 0,0
15.10.2018 16:00:00 19,7 6,5 19,7 18,1 14,7 14,6 11 6 21 12 ZZO 1015,2 33 42 0,0

tt = temperatuur
td = dauwpunt
tt 5cm = temperatuur 5cm
tt -5cm = temperatuur -5cm
tt -20cm = temperatuur -20cm
tt -100cm = temperatuur -100cm
ff = windsnelheid
fx = windstoten
dd = windrichting
ppp = luchtdruk
vv = zicht
sd = Zonneschijnduur
rr = neerslag

Weerstations in de omgeving